Location: Bishopstone
(51.0167°N, 1.9000°W)
Time: 01:57:18
(UTC+00:00)

Cosmos 2154 Rocket - Pass Details

Date: 16 September 2019
Orbit: 965 x 997 km, 82.9° (Epoch: 13 October)

Event Time Altitude Azimuth Distance (km) Brightness Sun altitude
Rises 19:32:52 0° 349° (N) 3,671 7.5 -12.0°
Reaches altitude 10° 19:35:23 10° 350° (N) 2,719 6.8 -12.3°
Maximum altitude 19:41:37 88° 264° (W) 974 4.0 -13.3°
Drops below altitude 10° 19:47:48 10° 174° (S) 2,701 6.0 -14.2°
Sets 19:50:18 0° 174° (S) 3,646 6.7 -14.5°
